[[{"header":{"parameterUnit":"m.s-1","parameterCategory":1,"la1":30.2991,"la2":30.254,"lo1":-89.0895,"lo2":-89.0444,"dy":0.0017,"dx":0.0017,"nx":28,"ny":28,"refTime":"2024-05-14T21:00:00:Z","depth":0,"parameterNumber":2,"parameterNumberName":"U-component_of_WINDS"},"data":[0,0,0,0,0,0,0,0,0,0,0,0,0,0,0,0,0,0,0,0,0,0,0,0,0,0,0,0,0,0,0,0,0,0,0,0,0,0,0,0,0,0,0,0,0,0,0,0,0,0,0,0,0,0,0,0,0,0,-2.0675,-2.0675,0,-2.0624,-2.0623,-2.0622,-2.0514,-2.0512,-2.051,-2.0508,-2.0457,-2.0457,-2.0458,0,0,0,0,0,0,0,0,0,0,0,0,0,-2.0679,-2.068,-2.0675,-2.0674,-2.0674,-2.0624,-2.0623,-2.0622,-2.0515,-2.0512,-2.0509,-2.0507,-2.0456,-2.0457,-2.0458,0,0,0,0,0,0,0,0,0,0,0,0,0,-2.0658,-2.068,-2.0675,-2.0614,-2.0608,-2.0624,-2.0623,-2.0622,-2.0515,-2.0512,-2.0509,-2.0506,-2.0456,-2.0457,-2.0458,-2.053,0,0,-2.0461,-2.0462,0,0,0,0,0,0,0,0,-2.0659,-2.0658,-2.0624,-2.0618,-2.0612,-2.0572,-2.0606,-2.0591,-2.0516,-2.055,-2.0508,-2.0504,-2.0498,-2.0495,-2.0493,-2.0527,-2.0525,-2.0461,-2.0462,-2.0462,-2.0463,0,0,0,0,0,0,0,-2.0661,-2.0659,-2.0655,-2.0623,-2.0616,-2.0589,-2.0582,-2.0602,-2.0543,-2.0547,-2.0539,-2.0534,-2.0494,-2.0492,-2.0491,-2.0524,-2.0461,-2.0462,-2.0463,-2.0463,-2.0612,-2.0615,0,0,0,0,0,0,-2.0671,-2.0661,-2.0656,-2.0653,-2.0628,-2.0591,-2.0584,-2.0588,-2.0543,-2.0532,-2.0537,-2.053,-2.0492,-2.049,-2.0489,-2.0567,-2.0462,-2.0463,-2.0464,-2.0608,-2.0613,-2.0616,0,0,0,0,0,0,-2.0672,-2.0672,-2.0658,-2.0655,-2.0651,-2.0595,-2.06,-2.0589,-2.0587,-2.0535,-2.0524,-2.0546,-2.0489,-2.0487,-2.0519,-2.0564,-2.0464,-2.0465,-2.0605,-2.061,-2.0614,-2.0727,0,0,0,0,0,0,-2.0672,-2.0673,-2.07,-2.0656,-2.0652,-2.0691,-2.0603,-2.059,-2.0589,-2.0578,-2.0541,-2.0531,-2.0486,-2.0519,-2.052,-2.0563,-2.0465,-2.06,-2.0607,-2.0613,-2.0719,-2.0735,-2.0749,0,0,0,0,0,-2.0673,-2.0734,-2.0702,-2.0702,-2.0685,-2.0694,-2.0691,-2.0638,-2.0593,-2.0619,-2.0585,-2.0533,-2.0559,-2.0523,-2.0524,-2.0568,-2.0597,-2.0605,-2.0612,-2.0712,-2.0732,-2.0748,0,0,0,0,0,0,-2.0786,-2.0728,-2.0691,-2.074,-2.0723,-2.0676,-2.0707,-2.0661,-2.0656,-2.0647,-2.0581,-2.0573,-2.0614,-2.0594,-2.0555,-2.0633,-2.0569,-2.0578,-2.0645,-2.0663,-2.0678,-2.0681,-2.0466,0,0,0,0,0,-2.0816,-2.0829,-2.0777,-2.0826,-2.0819,-2.0765,-2.0767,-2.0727,-2.0706,-2.0698,-2.0667,-2.0649,-2.0653,-2.0657,-2.0658,-2.0715,-2.0704,-2.0746,-2.0761,-2.0773,-2.0781,-2.0807,-2.0824,-2.0641,-2.0641,-2.0641,0,0,-2.088,-2.085,-2.0862,-2.0848,-2.0829,-2.0843,-2.0759,-2.0778,-2.0787,-2.0701,-2.0729,-2.0706,-2.0681,-2.0726,-2.0744,-2.071,-2.0829,-2.0783,-2.0793,-2.0794,-2.0816,-2.0834,-2.0849,-2.0646,-2.0645,-2.0644,0,0,-2.1002,-2.0981,-2.1018,-2.1001,-2.0973,-2.0936,-2.0945,-2.0904,-2.0885,-2.0912,-2.0847,-2.0857,-2.0865,-2.0849,-2.0843,-2.0956,-2.0906,-2.0958,-2.1036,-2.1062,-2.1077,-2.1089,-2.1127,-2.1142,-2.0966,-2.0966,-2.0966,0,-2.1085,-2.1102,-2.1043,-2.1065,-2.1059,-2.0981,-2.1017,-2.1003,-2.0978,-2.0976,-2.0939,-2.0946,-2.0924,-2.0962,-2.099,-2.0988,-2.0994,-2.0962,-2.1079,-2.1091,-2.1102,-2.1137,-2.1152,-2.0972,-2.0972,-2.0971,-2.0971,0,-2.1204,-2.1217,-2.125,-2.1226,-2.1224,-2.1254,-2.1198,-2.1203,-2.1163,-2.113,-2.1157,-2.1127,-2.112,-2.1126,-2.1088,-2.1158,-2.1138,-2.1091,-2.1025,-2.1127,-2.1159,-2.1172,-2.0982,-2.0979,-2.0977,-2.0976,0,0,-2.1397,-2.1338,-2.1351,-2.1337,-2.13,-2.1309,-2.1334,-2.1325,-2.133,-2.1315,-2.1332,-2.134,-2.1295,-2.1288,-2.1247,-2.127,-2.1358,-2.1219,-2.1218,-2.1245,-2.1431,-2.1465,-2.1482,-2.1325,-2.1327,-2.1329,-2.1432,0,-2.151,-2.1548,-2.1494,-2.1544,-2.1554,-2.1478,-2.1499,-2.1478,-2.1448,-2.1451,-2.1417,-2.1422,-2.1365,-2.1359,-2.1379,-2.1343,-2.1394,-2.1335,-2.134,-2.1341,-2.1347,-2.1499,-2.1536,-2.1634,-2.1445,-2.1447,-2.1448,0,-2.1647,-2.1636,-2.1687,-2.1643,-2.1645,-2.1665,-2.1651,-2.1656,-2.163,-2.1605,-2.1596,-2.1546,-2.1565,-2.1502,-2.1527,-2.1488,-2.1487,-2.1469,-2.1472,-2.1469,-2.14,-2.1499,-2.1665,-2.1679,-2.1468,-2.1466,-2.1465,0,-2.178,-2.1779,-2.1808,-2.1799,-2.175,-2.1765,-2.1745,-2.1716,-2.1713,-2.1701,-2.1698,-2.1689,-2.1683,-2.1677,-2.1625,-2.1584,-2.1656,-2.1589,-2.1635,-2.1636,-2.1653,-2.1652,-2.1819,-2.1655,-2.1655,-2.1654,-2.1654,0,-2.1911,-2.1944,-2.1866,-2.1885,-2.1919,-2.1856,-2.1892,-2.1864,-2.1838,-2.1849,-2.1783,-2.1794,-2.1726,-2.173,-2.1689,-2.1715,-2.1713,-2.1693,-2.1682,-2.1698,-2.1701,-2.1695,-2.1687,-2.1658,-2.1657,-2.1657,-2.1656,0,-2.2066,-2.2015,-2.2042,-2.1992,-2.198,-2.2007,-2.1964,-2.1978,-2.1942,-2.1956,-2.1956,-2.19,-2.19,-2.1847,-2.1838,-2.181,-2.1852,-2.1829,-2.1861,-2.1853,-2.1901,-2.1896,-2.2069,-2.2087,-2.1914,-2.1915,-2.1917,0,-2.2152,-2.2175,-2.2127,-2.2129,-2.2112,-2.2116,-2.2112,-2.2051,-2.2049,-2.2019,-2.2036,-2.2031,-2.2023,-2.2027,-2.1985,-2.1976,-2.1951,-2.2012,-2.195,-2.1964,-2.1949,-2.1948,-2.1948,-2.2025,-2.2028,-2.2029,-2.2031,0,-2.2309,-2.2282,-2.2279,-2.2266,-2.2263,-2.225,-2.2233,-2.2238,-2.217,-2.2172,-2.217,-2.2164,-2.2152,-2.2147,-2.213,-2.2109,-2.2058,-2.2051,-2.206,-2.2077,-2.2093,-2.2082,-2.1895,-2.2047,-2.2045,-2.2044,-2.2043,-2.2043,-2.2431,-2.2447,-2.2415,-2.2412,-2.2392,-2.2377,-2.2387,-2.2351,-2.2349,-2.2334,-2.2298,-2.2302,-2.2272,-2.2243,-2.2226,-2.2228,-2.2197,-2.2212,-2.2215,-2.2219,-2.2227,-2.2094,-2.2225,-2.2224,-2.2224,-2.2223,-2.2223,0,-2.2583,-2.2558,-2.2556,-2.2533,-2.253,-2.2482,-2.246,-2.2461,-2.2465,-2.2441,-2.2434,-2.2431,-2.2425,-2.2382,-2.237,-2.2379,-2.2355,-2.2378,-2.2376,-2.2371,-2.2257,-2.2248,-2.2397,-2.2397,-2.2397,-2.2397,-2.2397,-2.2397,-2.2661,-2.2685,-2.2654,-2.2666,-2.2641,-2.2643,-2.2635,-2.2619,-2.26,-2.2599,-2.2593,-2.2564,-2.2532,-2.2517,-2.2508,-2.2496,-2.2493,-2.2524,-2.2503,-2.2397,-2.238,-2.2364,-2.2355,-2.2524,-2.2524,-2.2617,-2.2618,-2.2618]},{"header":{"parameterUnit":"m.s-1","parameterCategory":1,"la1":30.2991,"la2":30.254,"lo1":-89.0895,"lo2":-89.0444,"dy":0.0017,"dx":0.0017,"nx":28,"ny":28,"refTime":"2024-05-14T21:00:00:Z","depth":0,"parameterNumber":3,"parameterNumberName":"V-component_of_WINDS"},"data":[0,0,0,0,0,0,0,0,0,0,0,0,0,0,0,0,0,0,0,0,0,0,0,0,0,0,0,0,0,0,0,0,0,0,0,0,0,0,0,0,0,0,0,0,0,0,0,0,0,0,0,0,0,0,0,0,0,0,-0.1858,-0.1858,0,-0.1897,-0.1898,-0.1898,-0.1936,-0.1937,-0.1937,-0.1938,-0.1977,-0.1978,-0.1978,0,0,0,0,0,0,0,0,0,0,0,0,0,-0.1813,-0.1814,-0.1858,-0.1859,-0.1859,-0.1897,-0.1898,-0.1899,-0.1936,-0.1937,-0.1937,-0.1938,-0.1977,-0.1978,-0.1978,0,0,0,0,0,0,0,0,0,0,0,0,0,-0.184,-0.1814,-0.1858,-0.1882,-0.1885,-0.1897,-0.1898,-0.1899,-0.1936,-0.1937,-0.1937,-0.1938,-0.1977,-0.1978,-0.1979,-0.197,0,0,-0.1981,-0.1982,0,0,0,0,0,0,0,0,-0.1839,-0.1842,-0.1878,-0.1881,-0.1884,-0.1913,-0.1897,-0.1922,-0.1936,-0.1917,-0.1938,-0.1938,-0.1955,-0.1958,-0.1964,-0.1971,-0.1973,-0.1981,-0.1982,-0.1982,-0.1983,0,0,0,0,0,0,0,-0.1837,-0.1841,-0.1874,-0.1879,-0.1882,-0.1891,-0.1895,-0.1902,-0.1931,-0.1918,-0.1921,-0.1925,-0.1957,-0.1963,-0.1965,-0.1974,-0.1981,-0.1982,-0.1983,-0.1983,-0.1973,-0.1972,0,0,0,0,0,0,-0.1831,-0.1839,-0.1872,-0.1875,-0.1863,-0.1891,-0.1896,-0.1903,-0.1931,-0.1936,-0.1925,-0.1927,-0.1961,-0.1964,-0.1966,-0.1956,-0.1982,-0.1983,-0.1984,-0.1974,-0.1973,-0.1972,0,0,0,0,0,0,-0.183,-0.1834,-0.1871,-0.1858,-0.1863,-0.1891,-0.1898,-0.1903,-0.1909,-0.1936,-0.1941,-0.1925,-0.1961,-0.1965,-0.1968,-0.1958,-0.1984,-0.1984,-0.1975,-0.1974,-0.1973,-0.1936,0,0,0,0,0,0,-0.1829,-0.1833,-0.1831,-0.1857,-0.1863,-0.1872,-0.1897,-0.1903,-0.1911,-0.1914,-0.1938,-0.1943,-0.1962,-0.1966,-0.1969,-0.1959,-0.1985,-0.1976,-0.1974,-0.1973,-0.1938,-0.1933,-0.1929,0,0,0,0,0,-0.1827,-0.182,-0.1831,-0.1835,-0.1861,-0.1872,-0.1875,-0.1898,-0.191,-0.1907,-0.1924,-0.1942,-0.1959,-0.1966,-0.1969,-0.196,-0.1977,-0.1975,-0.1973,-0.194,-0.1934,-0.1929,0,0,0,0,0,0,-0.1792,-0.1824,-0.1836,-0.1837,-0.1851,-0.1878,-0.1875,-0.1892,-0.1903,-0.1905,-0.1933,-0.1938,-0.1937,-0.1949,-0.1957,-0.1952,-0.197,-0.1969,-0.1944,-0.1939,-0.1934,-0.1931,-0.1986,0,0,0,0,0,-0.1784,-0.1791,-0.1818,-0.1816,-0.1822,-0.1847,-0.1853,-0.1869,-0.1885,-0.1891,-0.1908,-0.1922,-0.1931,-0.1935,-0.1945,-0.194,-0.1944,-0.1935,-0.1931,-0.1927,-0.1925,-0.1921,-0.1916,-0.1966,-0.1966,-0.1966,0,0,-0.1768,-0.1786,-0.1789,-0.1809,-0.1822,-0.1827,-0.1852,-0.1857,-0.1861,-0.1892,-0.1895,-0.1908,-0.1925,-0.1924,-0.1924,-0.1934,-0.1912,-0.1925,-0.1922,-0.1922,-0.1919,-0.1914,-0.191,-0.1965,-0.1965,-0.1965,0,0,-0.1742,-0.1757,-0.1756,-0.1768,-0.1787,-0.1803,-0.1803,-0.1827,-0.1836,-0.184,-0.1862,-0.1867,-0.1881,-0.1891,-0.1899,-0.1874,-0.189,-0.1876,-0.1853,-0.1849,-0.1845,-0.1841,-0.183,-0.1826,-0.1874,-0.1874,-0.1874,0,-0.172,-0.1729,-0.1753,-0.1756,-0.1763,-0.1791,-0.1789,-0.1799,-0.182,-0.1824,-0.1835,-0.1851,-0.1865,-0.1865,-0.1859,-0.1864,-0.1863,-0.1873,-0.1844,-0.184,-0.1838,-0.1827,-0.1823,-0.1872,-0.1872,-0.1873,-0.1873,0,-0.1699,-0.1705,-0.1702,-0.172,-0.1727,-0.1728,-0.1751,-0.1755,-0.177,-0.1784,-0.1786,-0.1804,-0.1816,-0.1817,-0.1832,-0.1818,-0.1823,-0.1839,-0.1858,-0.183,-0.1821,-0.1817,-0.1869,-0.187,-0.1871,-0.1871,0,0,-0.1653,-0.1683,-0.1681,-0.1689,-0.1711,-0.1715,-0.1716,-0.1727,-0.1729,-0.1742,-0.1742,-0.1752,-0.1766,-0.1774,-0.179,-0.1786,-0.1762,-0.1802,-0.1802,-0.1792,-0.1745,-0.1732,-0.1727,-0.1774,-0.1773,-0.1772,-0.1743,0,-0.1628,-0.1632,-0.1652,-0.1649,-0.1653,-0.1678,-0.1679,-0.1691,-0.1705,-0.1709,-0.1724,-0.173,-0.1748,-0.1753,-0.1751,-0.1766,-0.1753,-0.1768,-0.1772,-0.1772,-0.1765,-0.1723,-0.171,-0.1681,-0.174,-0.1739,-0.1739,0,-0.1601,-0.1611,-0.1608,-0.1627,-0.163,-0.163,-0.164,-0.1645,-0.1659,-0.1669,-0.1677,-0.1695,-0.1695,-0.1713,-0.1713,-0.1723,-0.1726,-0.1733,-0.1733,-0.1733,-0.1753,-0.172,-0.1673,-0.1668,-0.1734,-0.1734,-0.1734,0,-0.1564,-0.1577,-0.1576,-0.1582,-0.1606,-0.1605,-0.1614,-0.1629,-0.1634,-0.1643,-0.1646,-0.1655,-0.166,-0.1666,-0.1685,-0.1697,-0.1682,-0.1702,-0.1688,-0.1688,-0.1683,-0.1683,-0.1634,-0.1688,-0.1688,-0.1688,-0.1688,0,-0.1534,-0.1531,-0.156,-0.1559,-0.1555,-0.1578,-0.1574,-0.1586,-0.1598,-0.1599,-0.1622,-0.1622,-0.1648,-0.1651,-0.1666,-0.1662,-0.1665,-0.1671,-0.1675,-0.1668,-0.1667,-0.167,-0.1671,-0.1687,-0.1687,-0.1687,-0.1687,0,-0.1493,-0.1512,-0.1512,-0.1534,-0.1539,-0.1535,-0.1553,-0.1552,-0.1566,-0.1567,-0.1568,-0.159,-0.1595,-0.1614,-0.1624,-0.1634,-0.1624,-0.1633,-0.1619,-0.1621,-0.1605,-0.1605,-0.1555,-0.1548,-0.1607,-0.1607,-0.1606,0,-0.1471,-0.1469,-0.149,-0.1492,-0.15,-0.1504,-0.1508,-0.153,-0.1534,-0.1548,-0.1545,-0.1551,-0.1557,-0.1562,-0.1578,-0.1584,-0.1592,-0.1574,-0.1593,-0.1586,-0.1589,-0.1588,-0.1587,-0.1569,-0.1569,-0.1568,-0.1568,0,-0.1431,-0.144,-0.1446,-0.1454,-0.1458,-0.1466,-0.1475,-0.1475,-0.15,-0.1502,-0.1506,-0.151,-0.1519,-0.1523,-0.1532,-0.1541,-0.1557,-0.1561,-0.1558,-0.155,-0.1541,-0.1544,-0.1605,-0.1562,-0.1563,-0.1563,-0.1563,-0.1564,-0.1398,-0.1395,-0.1409,-0.1414,-0.1422,-0.1429,-0.1429,-0.1442,-0.1446,-0.1455,-0.1468,-0.1469,-0.1481,-0.1494,-0.1502,-0.1503,-0.1512,-0.1508,-0.1507,-0.1505,-0.15,-0.1543,-0.1505,-0.1505,-0.1505,-0.1505,-0.1505,0,-0.1356,-0.1366,-0.137,-0.1381,-0.1384,-0.1399,-0.1409,-0.141,-0.1411,-0.1421,-0.1426,-0.1429,-0.1433,-0.1449,-0.1455,-0.1452,-0.1459,-0.1452,-0.1452,-0.1453,-0.1493,-0.1494,-0.1446,-0.1446,-0.1446,-0.1446,-0.1446,-0.1446,-0.1335,-0.1332,-0.1342,-0.1342,-0.1352,-0.1353,-0.1357,-0.1363,-0.1371,-0.1373,-0.1377,-0.1387,-0.1398,-0.1404,-0.1408,-0.1412,-0.1412,-0.1402,-0.1409,-0.1445,-0.1451,-0.1456,-0.1457,-0.1403,-0.1403,-0.1369,-0.1369,-0.1369]}]]